This is the latest recevied weather packets stored in our database for station/object F8KHU-13. If no packets are shown the sender has not sent any weather packets the latest 10 day(s).
| Time | Temp. | Humidity | Pressure | Rain* | Wind** | Luminosity | Snow |
|---|---|---|---|---|---|---|---|
| 1778067596 | 12.78° C | 32% | 1011.1 hPa | 0 mm | - | 0 W/m² | - |
| 1778066736 | 13.33° C | 32% | 1011 hPa | 0 mm | - | 0 W/m² | - |
| 1778066716 | 13.33° C | 32% | 1011.1 hPa | 0 mm | - | 0 W/m² | - |
| 1778066696 | 13.33° C | 32% | 1011 hPa | 0 mm | - | 0 W/m² | - |
| 1778065836 | 13.33° C | 32% | 1011 hPa | 0 mm | - | 0 W/m² | - |
| 1778065816 | 13.33° C | 32% | 1011.1 hPa | 0 mm | - | 0 W/m² | - |
| 1778065796 | 13.33° C | 32% | 1011.1 hPa | 0 mm | - | 0 W/m² | - |
| 1778064937 | 12.22° C | 34% | 1011.1 hPa | 0 mm | - | 0 W/m² | - |
| 1778064916 | 12.22° C | 34% | 1011.1 hPa | 0 mm | - | 0 W/m² | - |
| 1778064897 | 12.22° C | 34% | 1011.1 hPa | 0 mm | - | 0 W/m² | - |
| 1778064037 | 10.56° C | 34% | 1011 hPa | 0 mm | - | 0 W/m² | - |
| 1778064017 | 10.56° C | 34% | 1011.1 hPa | 0 mm | - | 0 W/m² | - |
| 1778063997 | 10.56° C | 34% | 1011 hPa | 0 mm | - | 0 W/m² | - |
| 1778063137 | 10.56° C | 37% | 1011 hPa | 0 mm | - | 0 W/m² | - |
| 1778063117 | 10.56° C | 35% | 1011.1 hPa | 0 mm | - | 0 W/m² | - |
| 1778063097 | 10.56° C | 36% | 1011.1 hPa | 0 mm | - | 0 W/m² | - |
| 1778062237 | 10.56° C | 40% | 1011 hPa | 0 mm | - | 0 W/m² | - |
| 1778062217 | 10.56° C | 40% | 1011 hPa | 0 mm | - | 0 W/m² | - |
| 1778062197 | 10.56° C | 40% | 1011 hPa | 0 mm | - | 0 W/m² | - |
| 1778061337 | 10.56° C | 42% | 1010.8 hPa | 0 mm | - | 0 W/m² | - |
| 1778061317 | 10.56° C | 38% | 1010.8 hPa | 0 mm | - | 0 W/m² | - |
| 1778061297 | 10.56° C | 38% | 1010.8 hPa | 0 mm | - | 0 W/m² | - |
| 1778060438 | 10° C | 41% | 1010.7 hPa | 0 mm | - | 0 W/m² | - |
| 1778060417 | 10° C | 41% | 1010.8 hPa | 0 mm | - | 0 W/m² | - |
| 1778060397 | 10° C | 41% | 1010.7 hPa | 0 mm | - | 0 W/m² | - |
* Rain latest hour (hover to see other rain measurements)
** Current wind speed in m/s (hover to see current wind gust speed)